Tracking 20942 objects as of 11-Jul-2020
HD Live streaming from Space Station
objects crossing your sky now

THOR ABLESTAR DEB *

Track THOR ABLESTAR DEB * now!
10-day predictions


NORAD ID: 19961
Int'l Code: 1961-015MJ
Perigee: 855.1 km
Apogee: 1,107.9 km
Inclination: 65.6 °
Period: 104.6 minutes
Semi major axis: 7352 km
RCS: 0.0125 m2 (small)
Launch date: June 29, 1961
Source: United States (US)
Launch site: AIR FORCE EASTERN TEST RANGE (AFETR)

Note: This is SATELLITE DEBRIS
aabbcc
Your satellite tracking list
Your tracking list is empty




NASA's NSSDC Master Catalog

Two Line Element Set (TLE):
1 19961U 61015MJ  20192.34750582 -.00000012 +00000-0 +64540-4 0  9994
2 19961 065.6412 229.4318 0171893 272.7922 099.1788 13.77048779641894
Source of the keplerian elements: AFSPC